CAPE
0 0 0 0 28 66 43 21 50 74 63 114 152 137 148 184 179 135 71 31 22 0 0 1 1 1 0 0 0 3 6 26 3 12 25 32 27 25 14 3 0 0 0
0 0 0 0 14 32 44 14 11 44 100 114 182 153 127 76 57 65 45 31 15 3 0 1 3 1 1 0 5 12 24 34 24 22 42 47 28 22 2 0 0 0 0
0 0 0 0 0 0 38 0 12 36 76 125 127 90 122 101 108 96 77 41 21 6 1 1 2 0 1 1 3 5 23 19 22 13 15 2 0 0 0 0 0 0 0
0 0 0 0 0 0 24 23 11 9 30 56 80 107 102 112 58 59 35 20 5 0 2 1 2 0 2 3 11 1 0 0 1 0 0 0 0 0 0 0 0 0 0
0 0 0 0 0 0 0 22 24 27 32 15 38 91 118 94 76 43 42 29 0 8 1 5 13 22 15 5 0 0 0 0 0 0 0 0 0 0 0 0 0 0 0
0 0 0 0 0 2 0 0 0 0 3 2 19 2 12 14 19 20 17 7 13 4 2 1 0 0 0 0 0 0 8 0 0 0 0 0 0 0 0 0 0 0 0
0 0 0 0 0 0 0 0 0 0 0 0 0 0 0 3 21 30 33 27 35 6 0 0 0 0 0 0 0 0 0 0 0 0 0 0 0 0 0 0 0 0 0
0 0 0 0 0 0 0 0 0 0 0 0 0 0 0 0 0 2 11 6 7 3 0 0 0 0 0 0 0 0 0 0 0 0 0 0 0 0 0 0 0 0 0
0 0 0 0 0 0 0 0 0 0 0 0 0 0 0 0 0 0 0 0 0 0 0 0 0 0 0 0 0 0 0 0 0 0 0 0 0 0 0 0 0 0 0
0 0 0 0 0 0 0 0 0 0 0 0 0 0 0 0 0 0 0 0 0 0 0 0 0 0 0 0 0 0 0 0 0 0 0 0 0 0 0 0 0 0 0
0 0 0 0 0 0 0 0 0 0 0 0 0 0 0 0 0 0 0 0 0 0 0 0 0 0 0 0 0 0 0 0 0 0 0 0 0 0 0 0 0 0 0
0 0 0 0 0 0 0 0 0 11 0 0 0 0 0 0 0 0 0 0 0 0 0 0 0 0 0 0 0 0 0 0 0 0 0 0 0 0 0 0 0 0 0
0 0 0 0 0 0 0 0 0 0 35 0 0 0 0 0 0 0 0 0 0 0 0 0 0 0 0 0 0 0 0 0 0 0 0 0 0 0 0 0 0 0 0
0 0 0 0 0 0 0 0 0 0 0 0 0 0 0 0 0 0 0 0 0 0 0 0 0 0 0 0 0 0 0 0 0 0 0 0 0 0 0 0 0 0 0
0 0 0 0 0 0 0 0 0 0 0 0 0 0 0 0 0 0 0 0 0 0 0 0 0 0 0 0 0 0 0 0 0 0 0 0 0 0 0 0 0 0 0
0 0 0 0 0 0 0 0 0 0 0 0 0 0 0 0 0 0 0 0 0 0 0 0 0 0 0 0 0 0 0 0 0 0 0 0 0 0 0 0 0 0 0
0 0 0 0 0 0 0 0 0 0 0 0 0 0 0 0 0 0 0 0 0 0 0 0 0 0 0 0 0 0 0 0 0 0 0 0 0 0 0 0 0 0 0
0 0 0 0 0 0 0 0 0 0 0 0 0 0 0 0 0 0 0 0 0 0 0 0 0 0 0 0 0 0 0 0 0 0 0 0 0 0 0 0 0 0 0
0 0 0 0 0 0 0 0 0 0 0 0 0 0 0 0 0 0 0 0 0 0 0 0 0 0 0 0 0 0 0 0 0 0 0 0 0 0 0 0 0 0 0
1 0 0 0 0 0 0 0 0 0 0 0 0 0 0 0 0 0 0 0 0 0 0 0 0 0 0 0 0 0 0 0 0 0 0 0 0 0 0 0 0 0 0
108 3 0 0 0 0 0 0 0 0 0 0 0 0 0 0 0 0 0 0 0 0 0 0 0 0 0 0 0 0 0 0 0 0 0 0 0 0 0 0 0 0 0
245 115 0 0 0 0 0 0 0 0 0 0 0 0 0 0 0 0 0 0 0 0 0 0 0 0 0 0 0 0 0 0 0 0 0 0 0 0 0 0 0 0 0
347 284 108 5 0 0 0 0 0 0 0 0 0 0 0 0 0 0 0 0 0 0 0 0 0 0 0 0 0 0 0 0 0 0 0 0 0 0 0 0 0 0 0
446 354 289 105 0 0 0 0 0 0 0 0 0 0 0 0 0 0 0 0 0 0 0 0 0 0 0 0 0 0 0 0 0 0 0 0 0 0 0 0 0 0 0
175 356 287 240 132 22 2 1 0 0 0 0 0 0 0 0 0 0 0 0 0 0 0 0 0 0 0 0 0 0 0 0 0 0 0 0 0 0 0 0 0 0 0
301 38 304 325 262 216 106 69 33 0 0 0 0 0 0 0 0 0 0 0 0 0 0 0 0 0 0 0 0 0 0 0 0 0 0 0 0 0 0 0 0 0 0
CIN
0 0 0 0 -31 -35 -38 -45 -32 -30 -30 -35 -42 -33 -45 -43 -40 -49 -68 -82 -91 0 0 0 0 -79 0 -8 -11 -59 -48 -38 -21 -15 -21 -11 -9 -31 -60 -56 0 0 0
0 0 0 0 -27 -32 -34 -65 -71 -36 -21 -34 -23 -31 -41 -44 -48 -56 -62 -70 -101 -101 0 -31 -75 0 0 -14 -33 -32 -33 -31 -43 -22 -7 -19 -43 -45 -48 0 0 0 0
0 0 0 0 0 0 -27 0 -73 -48 -44 -31 -29 -28 -27 -47 -52 -57 -61 -75 -93 -91 0 0 0 0 0 -16 -26 -26 -35 -39 -41 -53 -66 -45 0 0 0 0 0 0 0
0 0 0 0 0 0 -23 -27 -48 -88 -76 -53 -51 -38 -37 -36 -46 -60 -72 -87 -77 -12 -50 -51 -63 -17 -21 -33 -39 -27 0 0 -31 0 0 0 0 0 0 0 0 0 0
0 0 0 0 0 0 0 -17 -31 -35 -50 -39 -40 -28 -21 -29 -26 -31 -28 -31 -6 -42 -8 -24 -37 -42 -45 -66 -8 0 0 0 0 0 0 0 0 0 0 0 0 0 0
0 0 0 0 -1 -6 0 0 0 0 -73 -68 -50 -45 -66 -78 -54 -30 -20 -41 -31 -44 0 0 0 -51 0 0 0 0 -67 0 0 0 0 0 0 0 0 0 0 0 0
0 0 0 0 0 0 0 0 0 0 0 0 0 0 0 -94 -59 -53 -49 -53 -33 -41 0 0 0 0 0 0 0 0 0 0 0 0 0 0 0 0 0 0 0 0 0
0 0 0 0 0 0 0 0 0 0 0 0 0 0 0 0 -9 -24 -54 -29 -47 -59 0 0 0 0 0 0 0 0 0 0 0 0 0 0 0 0 0 0 0 0 0
0 0 0 0 0 0 0 0 0 0 0 0 0 0 0 0 0 0 0 0 0 0 0 0 0 0 0 0 0 0 0 0 0 0 0 0 0 0 0 0 0 0 0
0 0 0 0 0 0 0 0 0 0 0 0 0 0 0 0 0 0 0 0 0 0 0 0 0 0 0 0 0 0 0 0 0 0 0 0 0 0 0 0 0 0 0
0 0 0 0 0 0 0 0 0 0 0 0 0 0 0 0 0 0 0 0 0 0 0 0 0 0 0 0 0 0 0 0 0 0 0 0 0 0 0 0 0 0 0
0 0 0 0 0 0 0 0 0 -287 0 0 0 0 0 0 0 0 0 0 0 0 0 0 0 0 0 0 0 0 0 0 0 0 0 0 0 0 0 0 0 0 0
0 0 0 0 0 0 0 0 0 -21 -377 0 0 0 0 0 0 0 0 0 0 0 0 0 0 0 0 0 0 0 0 0 0 0 0 0 0 0 0 0 0 0 0
0 0 0 0 0 0 0 0 0 0 0 0 0 0 0 0 0 0 0 0 0 0 0 0 0 0 0 0 0 0 0 0 0 0 0 0 0 0 0 0 0 0 0
0 0 0 0 0 0 0 0 0 0 0 0 0 0 0 0 0 0 0 0 0 0 0 0 0 0 0 0 0 0 0 0 0 0 0 0 0 0 0 0 0 0 0
0 0 0 0 0 0 0 0 0 0 0 0 0 0 0 0 0 0 0 0 0 0 0 0 0 0 0 0 0 0 0 0 0 0 0 0 0 0 0 0 0 0 0
0 0 0 0 0 0 0 0 0 0 0 0 0 0 0 0 0 0 0 0 0 0 0 0 0 0 0 0 0 0 0 0 0 0 0 0 0 0 0 0 0 0 0
0 0 0 0 0 0 0 0 0 0 0 0 0 0 0 0 0 0 0 0 0 0 0 0 0 0 0 0 0 0 0 0 0 0 0 0 0 0 0 0 0 0 0
0 0 0 0 0 0 0 0 0 0 0 0 0 0 0 0 0 0 0 0 0 0 0 0 0 0 0 0 0 0 0 0 0 0 0 0 0 0 0 0 0 0 0
-261 0 0 0 0 0 0 0 0 0 0 0 0 0 0 0 0 0 0 0 0 0 0 0 0 0 0 0 0 0 0 0 0 0 0 0 0 0 0 0 0 0 0
-316 -273 0 0 0 0 0 0 0 0 0 0 0 0 0 0 0 0 0 0 0 0 0 0 0 0 0 0 0 0 0 0 0 0 0 0 0 0 0 0 0 0 0
-211 -289 0 0 0 0 0 0 0 0 0 0 0 0 0 0 0 0 0 0 0 0 0 0 0 0 0 0 0 0 0 0 0 0 0 0 0 0 0 0 0 0 0
-136 -167 -276 -381 0 0 0 0 0 0 0 0 0 0 0 0 0 0 0 0 0 0 0 0 0 0 0 0 0 0 0 0 0 0 0 0 0 0 0 0 0 0 0
-94 -100 -123 -229 0 0 0 0 0 0 0 0 0 0 0 0 0 0 0 0 0 0 0 0 0 0 0 0 0 0 0 0 0 0 0 0 0 0 0 0 0 0 0
-129 -66 -83 -108 -196 -271 -111 -27 0 0 0 0 0 0 0 0 0 0 0 0 0 0 0 0 0 0 0 0 0 0 0 0 0 0 0 0 0 0 0 0 0 0 0
-89 -122 -81 -93 -105 -166 -209 -199 -216 0 0 0 0 0 0 0 0 0 0 0 0 0 0 0 0 0 0 0 0 0 0 0 0 0 0 0 0 0 0 0 0 0 0
Wind_Speed
18 18 18 20 21 22 24 25 23 24 24 21 27 19 27 26 25 22 8 6 4 4 8 7 7 8 9 6 8 5 7 5 14 15 16 27 33 35 31 28 27 25 24
18 18 19 20 21 22 25 24 20 25 27 23 22 26 32 33 28 23 10 5 5 6 6 7 6 5 7 5 6 7 5 16 16 17 18 21 6 16 29 27 27 25 21
19 20 20 21 21 20 23 25 24 26 28 18 22 30 34 33 33 21 18 7 1 2 3 3 4 5 6 7 7 14 21 22 20 15 15 19 24 27 27 27 24 23 19
20 20 21 21 23 22 24 25 26 26 27 23 22 27 31 31 31 28 25 12 20 5 6 2 7 8 10 30 32 30 24 26 32 30 29 30 28 25 26 24 22 22 10
20 20 21 22 22 23 24 26 28 25 21 20 21 21 26 28 28 29 28 28 28 24 23 31 32 36 34 35 38 33 27 32 31 29 26 25 26 25 24 19 15 9 8
20 20 21 23 23 24 25 27 27 25 24 30 28 28 21 28 31 32 33 31 30 34 32 34 33 41 40 35 32 26 26 33 30 27 25 28 27 24 18 15 10 8 12
21 20 21 24 25 26 26 26 26 28 28 28 29 28 29 29 32 34 33 33 34 28 30 37 38 38 36 32 27 25 32 30 29 28 27 24 20 18 14 9 8 10 10
21 21 22 24 26 26 26 26 27 29 27 29 30 31 32 30 33 33 33 32 32 33 35 36 36 34 30 30 30 24 6 3 4 5 15 12 11 10 9 10 10 12 19
22 22 23 26 26 27 27 27 26 27 27 28 30 31 32 30 32 33 33 33 34 33 33 33 33 32 31 31 31 27 2 4 9 13 13 12 13 13 13 16 18 19 21
24 24 24 25 26 27 27 26 26 26 26 27 28 29 29 30 27 30 31 31 28 27 30 31 30 30 28 28 21 6 5 6 9 10 12 13 12 14 16 17 17 19 20
25 24 24 23 25 25 25 25 25 26 26 26 26 26 27 28 27 27 27 27 27 26 26 25 25 24 19 14 17 15 13 12 11 11 13 14 15 16 16 19 18 19 22
26 24 24 23 22 22 21 22 23 26 26 25 25 26 26 26 25 24 24 24 25 23 24 22 21 20 16 14 13 11 11 10 11 12 15 15 16 19 19 18 19 22 24
26 23 23 23 21 22 22 22 23 26 26 25 25 24 24 24 25 25 24 23 23 22 21 21 19 17 14 11 10 9 9 9 10 12 13 16 18 18 20 22 22 22 25
23 20 20 21 19 20 20 23 23 24 24 23 22 22 21 22 22 23 22 18 16 17 17 17 15 12 10 8 7 8 8 9 11 10 13 15 17 19 22 22 25 25 27
20 13 15 16 15 16 17 19 20 23 24 22 20 18 17 18 19 20 20 17 13 12 11 9 8 7 6 5 5 6 7 8 9 10 12 15 19 21 24 25 26 26 25
13 12 13 10 8 10 10 9 1 10 18 20 16 16 16 16 15 17 18 16 14 12 8 7 5 4 3 3 4 5 6 7 8 10 13 16 19 22 23 24 23 24 25
11 9 10 11 9 7 6 6 8 2 2 10 15 14 13 12 14 14 16 16 14 8 4 3 2 3 3 2 4 5 5 6 8 11 14 17 19 20 19 21 22 23 24
13 11 10 8 9 6 8 8 7 10 10 10 4 6 2 12 14 14 14 11 8 7 6 5 4 1 3 2 2 4 6 7 9 11 14 15 16 16 18 19 20 21 22
17 14 11 9 9 8 6 6 7 7 8 7 5 5 5 4 10 13 14 10 10 9 8 6 4 6 4 3 3 3 4 6 8 10 12 12 13 14 15 17 19 20 21
11 13 13 13 11 10 8 7 7 7 8 9 11 12 7 7 6 10 12 10 8 8 8 6 7 4 2 2 2 3 5 6 8 9 9 11 12 13 14 16 18 20 22
9 13 14 13 13 13 12 11 9 9 9 10 10 10 11 11 10 11 13 12 10 10 9 8 7 5 4 3 1 2 3 5 6 7 9 9 10 11 13 15 17 20 22
9 10 14 15 13 13 14 15 15 13 12 11 10 11 14 12 13 14 15 15 13 10 8 9 9 8 7 6 4 2 2 2 4 6 7 8 9 10 11 14 17 19 22
9 9 11 13 14 14 14 16 16 16 16 15 14 13 14 14 14 14 15 14 14 11 9 12 11 9 8 6 4 3 3 3 4 4 4 5 8 9 10 14 16 20 24
10 10 9 11 13 14 16 15 15 17 17 17 17 17 17 17 17 16 14 10 11 7 10 12 11 10 8 6 4 2 5 3 4 4 5 6 7 9 11 13 18 21 23
15 12 11 10 12 13 14 16 16 17 19 19 17 18 18 16 16 13 12 10 9 8 6 6 8 7 7 6 5 5 4 4 5 7 6 6 7 9 11 14 18 21 24
18 17 16 14 12 12 13 13 14 14 15 15 14 15 13 12 12 11 10 10 11 10 7 6 6 6 7 4 3 1 2 6 6 6 5 6 8 10 12 15 18 20 23
Wind_Direction
76 83 82 74 78 84 80 88 110 109 111 149 137 177 108 106 104 98 109 107 161 184 212 207 195 202 200 180 201 189 187 216 181 200 201 186 180 172 192 191 184 179 173
96 82 88 80 89 98 86 96 126 111 109 136 153 154 131 122 108 103 95 107 165 189 209 208 202 183 189 187 192 189 217 205 193 191 199 201 216 115 169 182 192 197 162
98 99 106 96 103 115 103 98 113 119 113 156 150 136 131 131 126 98 94 82 107 290 52 199 158 137 169 176 139 193 190 191 200 211 214 209 195 186 184 184 196 174 164
104 99 109 110 114 122 108 99 102 121 131 152 152 147 137 137 137 130 114 83 160 246 227 142 114 177 175 175 172 177 188 186 152 141 144 157 171 191 170 159 166 183 134
106 98 109 116 126 115 110 104 110 132 149 155 159 159 152 147 148 130 130 131 133 148 164 168 166 167 170 165 149 163 177 153 143 141 182 189 185 186 151 142 136 82 47
106 104 107 119 136 120 116 115 126 134 139 121 127 133 163 144 128 121 125 145 144 153 161 159 162 157 156 161 164 177 178 147 165 175 183 147 154 153 130 122 93 66 9
113 110 110 129 127 133 131 132 132 130 127 123 125 136 138 139 126 118 117 116 129 158 164 145 144 157 156 169 177 178 156 148 139 138 140 140 124 132 120 83 49 14 358
120 117 119 132 132 146 147 141 127 125 126 127 132 125 124 138 122 119 123 133 137 142 142 133 148 159 173 173 168 184 221 241 284 277 109 74 73 62 53 11 4 354 345
131 126 126 139 137 144 141 141 143 127 123 129 129 129 125 136 121 119 122 126 124 127 141 148 147 152 155 150 143 126 18 15 36 56 51 28 21 16 10 353 343 344 343
147 137 133 136 140 143 138 137 148 143 136 130 133 134 135 131 149 130 127 126 103 102 121 135 130 131 127 141 113 66 46 30 36 16 3 15 29 12 1 2 3 358 356
152 143 139 134 139 138 134 138 138 145 141 138 136 138 138 142 148 149 144 126 121 117 115 118 125 118 103 82 101 92 80 73 60 25 6 4 3 7 11 5 9 8 360
154 145 145 139 135 135 131 132 136 149 158 157 146 145 151 154 149 138 130 131 140 128 129 120 115 111 95 83 75 66 53 31 13 10 6 16 20 11 10 13 9 2 0
159 148 147 144 138 139 140 141 143 154 161 157 149 144 148 152 155 153 143 135 135 132 127 126 115 108 98 77 66 58 51 39 29 14 19 16 13 14 12 7 6 7 5
155 146 142 143 139 140 142 148 151 156 159 156 147 148 146 147 150 149 143 122 110 113 114 113 112 104 94 82 42 24 15 13 11 28 21 20 12 8 6 5 360 359 359
155 145 146 143 140 140 144 148 153 163 165 159 156 150 144 145 149 148 144 135 115 104 100 95 94 94 98 74 46 30 23 18 30 28 23 11 5 3 359 358 2 4 6
152 151 156 158 152 143 141 138 275 145 162 168 158 154 155 153 148 151 154 148 138 127 109 114 112 107 106 73 28 12 11 19 17 17 12 6 2 360 360 1 9 11 9
175 168 161 162 172 176 172 166 162 292 150 157 169 167 166 160 159 157 161 161 157 147 151 144 140 136 118 30 4 353 357 11 19 12 8 2 1 4 12 10 12 11 11
191 188 190 181 176 179 180 181 182 174 174 171 186 172 145 172 172 167 164 160 175 189 201 197 194 228 295 316 343 354 3 7 3 2 0 4 9 14 12 16 19 19 20
181 191 206 209 195 198 196 197 205 204 201 204 219 260 274 284 180 178 172 181 189 197 208 217 268 310 305 309 316 334 349 353 357 3 2 12 19 15 21 24 21 22 21
198 203 217 225 240 224 220 205 203 217 212 209 201 199 235 265 234 197 192 199 215 223 222 241 286 285 269 272 308 336 349 355 358 3 20 18 23 26 23 23 24 18 13
219 201 208 236 230 241 240 236 229 211 212 217 226 222 218 233 236 219 212 226 228 234 234 257 262 259 252 257 282 330 345 355 13 24 12 24 30 35 34 27 21 12 16
231 227 211 211 232 233 249 251 257 244 237 248 240 232 217 232 237 232 228 225 235 250 262 256 256 249 240 236 248 282 325 45 57 24 26 35 35 34 29 18 13 19 13
227 230 227 226 228 240 247 254 257 255 249 245 248 250 229 239 249 243 230 237 251 257 259 254 246 246 252 246 232 200 170 126 45 40 58 53 44 40 23 16 24 13 7
239 245 238 234 234 235 227 241 264 261 260 252 249 248 246 244 253 251 252 234 234 242 254 246 238 241 229 220 210 171 128 77 54 87 77 87 53 26 23 26 13 10 11
280 257 255 249 247 237 242 241 244 250 277 272 263 262 263 257 260 252 244 237 237 228 229 240 233 247 237 230 191 161 126 91 94 90 77 63 37 41 34 19 14 12 10
278 280 281 267 253 255 251 256 264 263 270 277 276 268 259 254 254 248 244 242 239 254 246 245 222 190 177 164 150 144 120 109 100 86 57 57 51 37 22 16 13 14 12